N1PRS-9 Weather Reports


time (UTC)temp
C
wind
direction
speed
KPH
gust
KPH
rain 1hr
cm
rain 24hr
cm
rain mn
cm
humidity
%
barometer
mb
20260506224559 14 167 0.0 9.7 0.03 0.66 0.66 96 1007.0
20260506224032 14 0 0.0 9.7 0.03 0.66 0.66 96 1006.8
20260506223534 14 175 0.0 8.0 0.03 0.66 0.66 96 1006.8
20260506223044 14 173 1.6 11.3 0.03 0.66 0.66 96 1006.8
20260506222533 14 169 1.6 11.3 0.03 0.66 0.66 96 1006.8
20260506222032 14 0 1.6 6.4 0.03 0.66 0.66 96 1006.8
20260506221545 14 193 1.6 4.8 0.03 0.66 0.66 96 1006.8
20260506221031 14 160 0.0 6.4 0.03 0.66 0.66 96 1006.9
20260506220531 14 0 0.0 6.4 0.03 0.66 0.66 96 1006.8
20260506220045 14 0 0.0 4.8 0.03 0.64 0.64 96 1006.8
20260506215531 14 193 0.0 8.0 0.03 0.64 0.64 96 1006.8
20260506215031 14 0 0.0 8.0 0.03 0.64 0.64 96 1006.7
20260506214559 14 194 0.0 8.0 0.03 0.64 0.64 96 1006.7
20260506214030 14 172 0.0 8.0 0.05 0.64 0.64 96 1006.8
20260506213531 14 174 1.6 9.7 0.08 0.64 0.64 96 1006.8
20260506213044 14 0 0.0 9.7 0.10 0.64 0.64 96 1006.8
20260506212531 14 178 0.0 6.4 0.13 0.64 0.64 96 1006.8
20260506212033 14 0 0.0 8.0 0.13 0.64 0.64 96 1006.9
20260506211538 14 197 0.0 8.0 0.13 0.64 0.64 96 1006.9
20260506211032 14 184 0.0 8.0 0.13 0.64 0.64 96 1007.1
20260506210532 14 0 1.6 8.0 0.13 0.64 0.64 96 1007.0
20260506210044 14 189 0.0 6.4 0.13 0.61 0.61 96 1007.1
20260506205531 14 172 0.0 8.0 0.13 0.61 0.61 96 1007.3
20260506205032 14 208 1.6 8.0 0.13 0.61 0.61 95 1007.3
20260506204544 14 173 0.0 8.0 0.13 0.61 0.61 95 1007.4
20260506204029 14 0 0.0 8.0 0.13 0.58 0.58 95 1007.5
20260506203531 14 183 0.0 8.0 0.10 0.56 0.56 95 1007.4
20260506203047 14 181 1.6 8.0 0.08 0.53 0.53 95 1007.3
20260506202534 14 0 0.0 8.0 0.05 0.51 0.51 95 1007.4
20260506202031 14 172 1.6 9.7 0.05 0.51 0.51 95 1007.5
20260506201544 14 167 1.6 9.7 0.05 0.51 0.51 95 1007.5
20260506201033 14 0 0.0 8.0 0.05 0.51 0.51 95 1007.4
20260506200531 14 0 0.0 9.7 0.08 0.51 0.51 95 1007.5
20260506200041 14 187 0.0 9.7 0.05 0.48 0.48 95 1007.5
20260506195531 14 148 0.0 6.4 0.05 0.48 0.48 95 1007.6
20260506195031 14 0 0.0 6.4 0.08 0.48 0.48 95 1007.7
20260506194558 14 171 0.0 6.4 0.08 0.48 0.48 95 1007.7
20260506194035 14 0 1.6 8.0 0.05 0.46 0.46 95 1007.7
20260506193533 14 219 0.0 9.7 0.08 0.46 0.46 95 1007.7
20260506193043 14 0 1.6 9.7 0.08 0.46 0.46 94 1007.9
20260506192531 14 0 0.0 8.0 0.10 0.46 0.46 94 1007.9
20260506192032 14 164 1.6 8.0 0.10 0.46 0.46 94 1007.9
20260506191545 14 163 0.0 6.4 0.10 0.46 0.46 94 1007.8
20260506191028 14 164 1.6 9.7 0.13 0.46 0.46 94 1008.0
20260506190535 14 0 0.0 9.7 0.10 0.43 0.43 94 1008.0
20260506190044 15 175 1.6 11.3 0.10 0.43 0.43 94 1008.0
20260506185531 15 178 0.0 11.3 0.13 0.43 0.43 94 1008.0
20260506185031 15 221 3.2 11.3 0.10 0.41 0.41 94 1008.2
20260506184545 15 171 0.0 9.7 0.13 0.41 0.41 94 1008.3
20260506184032 15 185 1.6 9.7 0.15 0.41 0.41 93 1008.4
20260506183531 15 32 0.0 6.4 0.15 0.38 0.38 93 1008.4
20260506183047 15 0 0.0 4.8 0.18 0.38 0.38 93 1008.4
20260506182530 15 0 0.0 4.8 0.18 0.36 0.36 93 1008.4
20260506182034 15 0 0.0 8.0 0.23 0.36 0.36 92 1008.2
20260506181547 15 0 0.0 8.0 0.28 0.36 0.36 92 1008.0
20260506181032 15 184 0.0 4.8 0.30 0.33 0.33 92 1008.2
20260506180531 15 171 0.0 4.8 0.30 0.33 0.33 92 1008.2
20260506180051 15 0 1.6 4.8 0.33 0.33 0.33 91 1008.2
20260506175536 15 0 0.0 4.8 0.30 0.30 0.30 91 1008.4
20260506175033 15 0 0.0 1.6 0.28 0.28 0.28 91 1008.7
20260506174553 15 0 0.0 1.6 0.28 0.28 0.28 91 1008.7
20260506174033 15 0 0.0 3.2 0.25 0.25 0.25 90 1008.9
20260506173535 16 0 0.0 3.2 0.23 0.23 0.23 89 1009.0
20260506173048 16 177 0.0 4.8 0.18 0.18 0.18 88 1009.1
20260506172533 16 0 0.0 4.8 0.15 0.15 0.15 87 1009.3
20260506172033 16 0 0.0 3.2 0.13 0.13 0.13 86 1009.2
20260506171553 16 173 0.0 4.8 0.08 0.08 0.08 85 1009.1
20260506171038 17 0 0.0 11.3 0.03 0.03 0.03 83 1009.4
20260506170535 17 180 0.0 11.3 0.00 0.00 0.00 83 1009.5
20260506170055 17 163 0.0 8.0 0.00 0.00 0.00 81 1009.5
20260506165536 17 174 0.0 14.5 0.00 0.00 0.00 80 1009.5
20260506165035 18 176 1.6 16.1 0.00 0.00 0.00 77 1009.4
20260506164543 18 150 3.2 16.1 0.00 0.00 0.00 76 1009.3
20260506164034 18 172 1.6 9.7 0.00 0.00 0.00 75 1009.3
20260506163531 18 191 3.2 12.9 0.00 0.00 0.00 75 1009.2
20260506163048 18 159 3.2 12.9 0.00 0.00 0.00 75 1009.2
20260506162533 18 148 3.2 11.3 0.00 0.00 0.00 74 1009.1
20260506162033 18 180 3.2 17.7 0.00 0.00 0.00 74 1009.2
20260506161546 18 166 3.2 17.7 0.00 0.00 0.00 74 1009.3
20260506161033 18 167 1.6 12.9 0.00 0.00 0.00 74 1009.4
20260506160533 18 223 1.6 12.9 0.00 0.00 0.00 74 1009.5
20260506160045 18 194 1.6 16.1 0.00 0.00 0.00 74 1009.5
20260506155533 18 0 3.2 16.1 0.00 0.00 0.00 74 1009.6
20260506155036 18 161 1.6 19.3 0.00 0.00 0.00 73 1009.6
20260506154607 18 197 3.2 19.3 0.00 0.00 0.00 73 1009.7
20260506154033 19 250 3.2 16.1 0.00 0.00 0.00 72 1009.5
20260506153532 19 247 3.2 16.1 0.00 0.00 0.00 72 1009.5
20260506153045 19 181 1.6 12.9 0.00 0.00 0.00 72 1009.4
20260506152533 19 195 1.6 8.0 0.00 0.00 0.00 72 1009.5
20260506152033 19 153 0.0 11.3 0.00 0.00 0.00 73 1009.4
20260506151545 19 171 1.6 11.3 0.00 0.00 0.00 72 1009.6
20260506151032 19 180 0.0 9.7 0.00 0.00 0.00 72 1009.4
20260506150534 19 160 3.2 16.1 0.00 0.00 0.00 72 1009.4
20260506150051 19 158 1.6 17.7 0.00 0.00 0.00 73 1009.5
20260506145538 19 140 1.6 19.3 0.00 0.00 0.00 73 1009.5
20260506145110 18 166 1.6 19.3 0.00 0.00 0.00 74 1009.6
20260506144559 18 170 4.8 19.3 0.00 0.00 0.00 72 1009.7
20260506144033 19 161 1.6 19.3 0.00 0.00 0.00 73 1009.8
20260506143533 19 194 4.8 19.3 0.00 0.00 0.00 73 1009.8
20260506143044 19 172 3.2 12.9 0.00 0.00 0.00 74 1009.8
20260506142532 19 188 1.6 12.9 0.00 0.00 0.00 75 1009.7
20260506142031 18 219 1.6 12.9 0.00 0.00 0.00 75 1009.7
20260506141542 18 175 3.2 12.9 0.00 0.00 0.00 75 1009.8
20260506141031 18 178 3.2 11.3 0.00 0.00 0.00 76 1009.9
20260506140531 18 194 1.6 16.1 0.00 0.00 0.00 76 1010.0
20260506140054 18 167 3.2 16.1 0.00 0.00 0.00 76 1010.1
20260506135531 18 160 3.2 11.3 0.00 0.00 0.00 77 1009.9
20260506135031 18 0 0.0 8.0 0.00 0.00 0.00 78 1009.6
20260506134547 18 167 1.6 16.1 0.00 0.00 0.00 78 1009.9
20260506134045 17 164 1.6 16.1 0.00 0.00 0.00 78 1009.5
20260506133531 17 161 4.8 16.1 0.00 0.00 0.00 77 1009.4
20260506133049 17 169 3.2 9.7 0.00 0.00 0.00 79 1009.7
20260506132531 17 184 3.2 11.3 0.00 0.00 0.00 79 1009.9
20260506132030 17 170 0.0 11.3 0.00 0.00 0.00 80 1009.8
20260506131543 17 164 1.6 11.3 0.00 0.00 0.00 80 1009.9
20260506131031 17 199 3.2 11.3 0.00 0.00 0.00 81 1009.8
20260506130532 17 163 3.2 11.3 0.00 0.00 0.00 81 1009.8
20260506130046 17 180 1.6 11.3 0.00 0.00 0.00 81 1010.0
20260506125532 16 152 3.2 11.3 0.00 0.00 0.00 82 1010.2
20260506125030 16 184 1.6 11.3 0.00 0.00 0.00 82 1010.5
20260506124545 16 161 1.6 16.1 0.00 0.00 0.00 82 1010.6
20260506124031 16 171 1.6 16.1 0.00 0.00 0.00 83 1010.6
20260506123531 16 178 3.2 16.1 0.00 0.00 0.00 82 1010.7
20260506123041 16 0 1.6 16.1 0.00 0.00 0.00 83 1010.9
20260506122532 16 163 4.8 16.1 0.00 0.00 0.00 83 1010.7
20260506122031 16 180 1.6 12.9 0.00 0.00 0.00 84 1010.7
20260506121545 15 205 3.2 14.5 0.00 0.00 0.00 84 1010.6
20260506121034 15 166 3.2 14.5 0.00 0.00 0.00 84 1010.5
20260506120537 15 197 3.2 14.5 0.00 0.00 0.00 84 1010.5
20260506120049 15 182 3.2 14.5 0.00 0.00 0.00 84 1010.6
20260506115532 15 163 1.6 16.1 0.00 0.00 0.00 84 1010.6
20260506115032 15 0 3.2 16.1 0.00 0.00 0.00 85 1010.5
20260506114548 15 169 0.0 17.7 0.00 0.00 0.00 85 1010.7
20260506114031 15 173 4.8 17.7 0.00 0.00 0.00 85 1010.6
20260506113531 15 156 1.6 14.5 0.00 0.00 0.00 85 1010.4
20260506113049 15 173 1.6 16.1 0.00 0.00 0.00 85 1010.2
20260506112532 15 148 4.8 16.1 0.00 0.00 0.00 86 1010.4
20260506112031 15 174 3.2 9.7 0.00 0.00 0.00 86 1010.6
20260506111543 15 187 1.6 8.0 0.00 0.00 0.00 86 1010.9
20260506111033 15 182 1.6 9.7 0.00 0.00 0.00 86 1010.8
20260506110533 15 140 1.6 12.9 0.00 0.00 0.00 87 1010.7
20260506110039 14 159 1.6 12.9 0.00 0.00 0.00 87 1010.6
20260506105530 14 174 3.2 8.0 0.00 0.00 0.00 87 1010.6
20260506105031 14 0 1.6 8.0 0.00 0.00 0.00 86 1010.4
20260506104553 14 185 1.6 9.7 0.00 0.00 0.00 87 1010.8
20260506104030 14 0 1.6 14.5 0.00 0.00 0.00 87 1010.7
20260506103533 14 180 3.2 14.5 0.00 0.00 0.00 87 1010.5
20260506103044 14 172 1.6 14.5 0.00 0.00 0.00 87 1010.4
20260506102534 14 0 0.0 8.0 0.00 0.00 0.00 87 1010.4
20260506102034 14 198 1.6 8.0 0.00 0.00 0.00 87 1010.4
20260506101550 14 0 0.0 9.7 0.00 0.00 0.00 86 1010.5
20260506101032 14 187 1.6 9.7 0.00 0.00 0.00 86 1010.4
20260506100533 14 175 0.0 11.3 0.00 0.00 0.00 86 1010.3
20260506100043 14 0 3.2 11.3 0.00 0.00 0.00 86 1010.3
20260506095535 14 190 3.2 9.7 0.00 0.00 0.00 86 1010.2
20260506095033 14 204 1.6 9.7 0.00 0.00 0.00 86 1010.1
20260506094544 14 205 0.0 9.7 0.00 0.00 0.00 85 1010.1
20260506094033 14 176 1.6 11.3 0.00 0.00 0.00 85 1010.1
20260506093531 14 0 0.0 11.3 0.00 0.00 0.00 85 1010.2
20260506093046 14 163 3.2 14.5 0.00 0.00 0.00 85 1010.3
20260506092533 15 167 3.2 14.5 0.00 0.00 0.00 85 1010.2
20260506092033 15 185 1.6 9.7 0.00 0.00 0.00 85 1010.2
20260506091544 15 162 1.6 11.3 0.00 0.00 0.00 84 1010.2
20260506091034 15 186 4.8 11.3 0.00 0.00 0.00 84 1010.1
20260506090533 15 0 1.6 9.7 0.00 0.00 0.00 84 1010.2
20260506090043 15 167 1.6 11.3 0.00 0.00 0.00 84 1010.3
20260506085532 15 188 1.6 11.3 0.00 0.00 0.00 84 1010.2
20260506085030 15 153 1.6 11.3 0.00 0.00 0.00 84 1010.3
20260506084545 15 240 1.6 11.3 0.00 0.00 0.00 84 1010.4
20260506084034 15 173 1.6 11.3 0.00 0.00 0.00 84 1010.4
20260506083534 15 167 1.6 6.4 0.00 0.00 0.00 84 1010.4
20260506083044 15 173 1.6 6.4 0.00 0.00 0.00 83 1010.3
20260506082535 15 0 1.6 14.5 0.00 0.00 0.00 83 1010.2
20260506082032 15 173 0.0 14.5 0.00 0.00 0.00 83 1010.3
20260506081543 15 178 1.6 9.7 0.00 0.00 0.00 83 1010.2
20260506081035 15 196 0.0 11.3 0.00 0.00 0.00 83 1010.2
20260506080533 15 221 4.8 12.9 0.00 0.00 0.00 83 1010.3
20260506073048 15 168 1.6 8.0 0.00 0.00 0.00 82 1010.4
20260506072531 15 182 0.0 9.7 0.00 0.00 0.00 82 1010.4
20260506072031 15 207 1.6 11.3 0.00 0.00 0.00 81 1010.5
20260506071544 15 182 1.6 11.3 0.00 0.00 0.00 81 1010.5
20260506071033 15 178 1.6 9.7 0.00 0.00 0.00 81 1010.3
20260506070533 15 200 1.6 14.5 0.00 0.00 0.00 81 1010.3
20260506062033 15 185 1.6 9.7 0.00 0.00 0.00 80 1010.2
20260506061548 15 183 1.6 9.7 0.00 0.00 0.00 80 1010.2
20260506061034 15 166 1.6 12.9 0.00 0.00 0.00 80 1010.3
20260506060532 15 186 3.2 12.9 0.00 0.00 0.00 79 1010.2
20260506051035 16 173 1.6 14.5 0.00 0.00 0.00 77 1010.8
20260506050532 16 174 3.2 14.5 0.00 0.00 0.00 77 1010.8
20260506045035 16 175 1.6 11.3 0.00 0.00 0.00 76 1010.8
20260506044608 16 174 1.6 12.9 0.00 0.00 0.00 76 1010.9
20260506044032 16 186 1.6 16.1 0.00 0.00 0.00 76 1010.9
20260506043530 16 213 3.2 16.1 0.00 0.00 0.00 76 1010.9
20260506043043 17 127 3.2 14.5 0.00 0.00 0.00 75 1011.0
20260506042534 17 179 3.2 14.5 0.00 0.00 0.00 75 1011.0
20260506042031 17 194 1.6 11.3 0.00 0.00 0.00 75 1010.9
20260506041548 17 184 1.6 11.3 0.00 0.00 0.00 74 1010.9
20260506041033 17 177 1.6 11.3 0.00 0.00 0.00 74 1010.9
20260506040533 17 207 3.2 11.3 0.00 0.00 0.00 74 1011.0
20260506040047 17 173 1.6 14.5 0.00 0.00 0.00 73 1011.0
20260506035533 17 0 3.2 14.5 0.00 0.00 0.00 73 1010.9
20260506035033 17 0 3.2 12.9 0.00 0.00 0.00 72 1010.9
20260506034539 17 192 1.6 30.6 0.00 0.00 0.00 72 1011.0
20260506034034 17 178 3.2 30.6 0.00 0.00 0.00 71 1011.0
20260506033533 17 174 4.8 30.6 0.00 0.00 0.00 71 1011.1
20260506033045 17 178 3.2 12.9 0.00 0.00 0.00 71 1011.0
20260506032533 17 205 1.6 9.7 0.00 0.00 0.00 70 1011.0
20260506032033 17 169 1.6 9.7 0.00 0.00 0.00 70 1011.0
20260506031544 17 181 1.6 9.7 0.00 0.00 0.00 70 1011.0
20260506031032 17 193 3.2 11.3 0.00 0.00 0.00 70 1010.9
20260506030533 17 0 1.6 11.3 0.00 0.00 0.00 70 1010.9
20260506030044 17 169 1.6 12.9 0.00 0.00 0.00 69 1010.7
20260506025532 17 169 1.6 14.5 0.00 0.00 0.00 69 1010.8
20260506025033 17 163 3.2 14.5 0.00 0.00 0.00 69 1010.8
20260506024545 17 173 3.2 14.5 0.00 0.00 0.00 70 1010.8
20260506024032 17 166 1.6 17.7 0.00 0.00 0.00 69 1010.6
20260506023534 17 178 3.2 17.7 0.00 0.00 0.00 69 1010.7
20260506023055 17 176 3.2 11.3 0.00 0.00 0.00 69 1010.8
20260506022533 17 183 3.2 14.5 0.00 0.00 0.00 69 1010.7
20260506022033 17 159 4.8 14.5 0.00 0.00 0.00 69 1010.8
20260506021550 17 151 3.2 12.9 0.00 0.00 0.00 69 1010.8
20260506021031 17 165 3.2 16.1 0.00 0.00 0.00 69 1010.8
20260506020532 17 0 3.2 16.1 0.00 0.00 0.00 69 1010.8
20260506020047 17 189 4.8 16.1 0.00 0.00 0.00 69 1010.7
20260506015535 17 172 4.8 19.3 0.00 0.00 0.00 69 1010.7
20260506015034 17 183 3.2 19.3 0.00 0.00 0.00 69 1010.6
20260506014545 17 170 3.2 11.3 0.00 0.00 0.00 69 1010.5
20260506014032 17 176 1.6 14.5 0.00 0.00 0.00 68 1010.5
20260506013532 17 194 1.6 14.5 0.00 0.00 0.00 68 1010.4
20260506013043 17 184 1.6 9.7 0.00 0.00 0.00 68 1010.4
20260506012532 17 162 1.6 9.7 0.00 0.00 0.00 68 1010.4
20260506012032 17 171 1.6 9.7 0.00 0.00 0.00 67 1010.3
20260506011545 17 154 1.6 8.0 0.00 0.00 0.00 67 1010.3
20260506011032 17 0 0.0 8.0 0.00 0.00 0.00 67 1010.1
20260506010532 17 171 1.6 11.3 0.00 0.00 0.00 67 1010.1
20260506010051 17 185 1.6 11.3 0.00 0.00 0.00 66 1010.1
20260506005533 17 242 3.2 14.5 0.00 0.00 0.00 66 1010.2
20260506005033 17 191 1.6 14.5 0.00 0.00 0.00 65 1010.2
20260506004550 17 0 1.6 17.7 0.00 0.00 0.00 65 1010.3
20260506004033 17 161 1.6 17.7 0.00 0.00 0.00 64 1010.0
20260506003533 18 112 3.2 11.3 0.00 0.00 0.00 64 1009.8
20260506003044 18 169 1.6 11.3 0.00 0.00 0.00 64 1009.7
20260506002533 18 185 3.2 12.9 0.00 0.00 0.00 64 1009.7
20260506002032 18 180 3.2 14.5 0.00 0.00 0.00 64 1009.5
20260506001548 18 147 1.6 14.5 0.00 0.00 0.00 64 1009.5
20260506001033 18 188 1.6 11.3 0.00 0.00 0.00 64 1009.5
20260506000533 18 0 1.6 14.5 0.00 0.00 0.00 64 1009.5
20260506000045 18 166 3.2 14.5 0.00 0.00 0.00 64 1009.4
20260505235532 18 166 3.2 14.5 0.00 0.00 0.00 64 1009.4
20260505235032 18 176 3.2 14.5 0.00 0.00 0.00 63 1009.3
20260505234603 18 162 1.6 12.9 0.00 0.00 0.00 63 1009.1
20260505234035 19 159 4.8 12.9 0.00 0.00 0.00 62 1009.0
20260505233532 19 196 4.8 12.9 0.00 0.00 0.00 62 1009.0
20260505233044 19 178 3.2 16.1 0.00 0.00 0.00 61 1009.0
20260505232532 20 192 3.2 17.7 0.00 0.00 0.00 61 1008.9
20260505232036 20 148 3.2 17.7 0.00 0.00 0.00 60 1008.9
20260505231549 20 163 3.2 12.9 0.00 0.00 0.00 60 1008.8
20260505231033 20 184 3.2 12.9 0.00 0.00 0.00 59 1008.7
20260505230533 20 111 1.6 14.5 0.00 0.00 0.00 59 1008.7
20260505230044 20 190 3.2 14.5 0.00 0.00 0.00 59 1008.6
20260505225533 21 163 3.2 14.5 0.00 0.00 0.00 58 1008.6
20260505225035 21 172 3.2 16.1 0.00 0.00 0.00 58 1008.3